Temperature
19 19 20 20 17 15 17 18 19 20 19 20 21 21 19 19 18 18 19 19 18 17 16 14 13 12 12 12 11 11 10 10 10 9 9 8 8 8 7 7 7 7 7 7 7 7 7 7 7
19 19 20 19 16 16 17 18 19 19 20 20 20 20 19 19 19 19 20 19 18 17 16 14 13 12 12 12 12 11 11 10 10 9 9 8 8 8 7 7 7 7 7 7 7 7 7 7 7
19 20 20 16 16 16 19 19 18 19 20 20 20 20 20 20 20 20 20 19 18 17 16 15 13 12 12 12 12 11 11 10 10 9 9 9 8 8 8 8 8 8 8 7 7 7 7 7 7
20 20 19 16 18 17 18 19 18 18 19 19 20 19 19 20 20 20 20 19 18 17 16 14 13 12 12 11 11 11 11 10 10 10 9 9 9 8 8 8 8 8 8 8 8 7 7 7 7
20 20 17 16 17 18 18 19 19 17 18 19 19 18 19 20 20 20 19 19 19 17 16 14 13 12 11 11 11 11 11 11 10 10 9 9 9 9 9 8 8 8 8 8 8 8 8 8 8
20 18 16 16 17 18 19 20 19 19 19 19 19 18 19 19 20 19 19 18 18 17 16 14 13 12 11 11 11 11 11 11 10 10 10 9 9 9 9 9 9 8 8 8 8 8 8 8 8
20 16 17 17 17 17 19 21 20 20 19 20 20 18 19 19 19 18 18 17 16 16 15 14 13 12 11 11 11 11 11 11 11 10 10 10 10 9 9 9 9 9 9 8 8 8 8 8 8
21 15 18 16 17 17 20 21 21 21 20 21 20 18 19 20 18 17 16 15 15 15 14 14 13 12 11 11 10 11 11 11 11 11 10 10 10 10 9 9 9 9 9 9 9 8 8 8 8
20 15 16 16 17 17 19 20 21 20 20 20 20 20 20 20 18 16 15 14 14 14 14 13 13 12 12 11 10 10 10 10 10 11 11 10 10 10 10 10 9 9 9 9 9 9 8 8 8
19 15 16 17 18 18 19 19 20 19 18 19 19 19 19 19 18 17 17 16 16 16 15 14 13 13 12 11 11 10 10 10 11 11 11 11 10 10 10 10 10 9 9 9 9 8 8 8 8
18 16 16 18 20 20 19 19 20 18 16 18 19 20 19 18 18 17 18 17 17 17 16 15 14 13 12 11 11 11 11 11 11 11 11 10 10 10 10 10 10 9 9 9 9 9 8 8 8
18 17 19 19 20 19 19 19 18 18 19 20 20 19 18 18 18 18 18 18 17 16 16 16 14 13 12 12 11 11 11 11 11 11 11 10 10 10 10 10 10 9 9 9 9 8 8 8 8
17 17 19 19 19 19 19 18 18 19 21 20 19 19 18 18 18 18 18 18 17 16 16 16 15 14 13 12 11 11 11 11 11 11 11 10 10 10 10 10 10 9 9 9 8 8 8 8 8
18 18 18 19 19 18 17 17 16 20 21 20 20 19 19 19 19 18 18 18 17 17 16 16 15 14 13 13 12 12 12 11 11 11 11 10 10 10 10 10 9 9 9 9 8 8 8 8 8
18 16 15 17 18 17 17 16 15 21 20 19 19 19 19 19 19 18 19 19 19 18 17 16 15 14 14 13 13 12 12 11 11 11 11 10 10 10 10 9 9 9 9 8 8 8 7 8 7
16 15 15 16 17 17 17 15 16 19 18 18 18 18 18 18 19 19 19 19 18 18 17 16 15 14 13 13 13 12 12 11 11 11 10 10 10 10 9 9 9 9 8 8 8 8 7 7 7
15 14 15 15 16 16 16 15 15 18 17 17 17 18 18 18 19 19 19 19 19 18 17 16 15 14 14 13 12 11 11 11 10 10 10 10 9 9 9 9 9 8 8 8 7 7 7 7 7
15 15 14 14 15 16 15 14 15 17 17 16 17 17 17 18 18 19 19 19 19 18 17 16 15 14 13 12 11 10 10 10 10 10 10 9 9 9 8 8 8 8 7 7 7 7 7 7 6
15 15 14 14 15 15 14 14 14 16 16 16 16 17 17 17 18 18 19 19 18 18 17 16 15 14 13 12 11 11 11 10 10 10 10 9 9 8 8 8 8 7 7 7 7 6 6 6 6
16 15 14 13 14 14 14 13 14 15 15 16 16 16 16 17 18 18 18 18 17 17 16 16 15 14 14 13 13 12 11 10 10 10 9 9 9 8 8 7 7 7 6 6 6 6 6 5 5
15 15 14 14 13 13 14 14 15 15 15 15 16 16 16 16 16 17 17 17 16 16 16 15 15 14 13 13 12 11 10 10 10 10 10 9 9 8 8 7 7 6 6 6 6 5 5 5 5
14 15 15 14 13 12 13 13 14 15 15 14 15 15 16 16 16 16 16 16 15 15 15 14 14 13 13 12 11 11 11 11 11 10 10 9 9 8 8 7 7 6 6 5 5 5 4 4 4
15 15 14 14 13 12 12 12 12 14 15 14 14 15 15 15 15 15 15 15 15 14 14 14 13 12 12 12 11 11 10 10 10 10 9 9 9 8 8 7 7 6 6 5 5 4 4 4 3
15 13 13 11 11 13 14 13 13 13 14 14 14 14 15 15 15 15 14 14 14 14 14 13 13 12 12 11 11 11 10 10 10 9 9 9 8 8 8 7 7 6 6 5 5 4 4 3 3
14 12 12 13 12 13 13 14 13 14 14 14 14 14 15 15 14 14 14 14 13 13 13 13 12 12 12 11 11 11 10 10 9 9 9 8 8 8 8 7 7 6 6 5 5 4 4 3 3
14 13 12 13 12 11 12 13 13 13 14 15 15 14 14 14 14 14 13 13 13 13 12 12 12 11 11 11 11 10 10 10 9 9 9 8 8 8 7 7 6 6 5 5 4 4 3 3 2
15 13 12 11 11 11 11 12 13 14 13 13 13 14 14 14 13 13 13 12 12 12 12 11 11 11 11 10 10 10 9 9 9 8 8 8 7 7 7 6 6 5 5 5 4 3 3 3 2
14 12 10 11 12 11 11 11 13 14 13 13 12 13 13 13 13 12 12 12 11 11 11 11 10 10 10 9 9 9 8 8 8 7 7 7 7 7 6 6 6 5 5 4 4 3 3 3 2
13 13 12 10 10 10 10 11 13 13 13 12 12 13 13 13 12 12 11 11 11 10 10 10 9 9 9 8 8 8 8 7 7 7 7 6 6 6 6 6 5 5 5 4 4 3 3 2 2
12 12 11 12 11 9 9 11 13 12 12 12 12 12 12 12 11 11 11 10 10 9 9 9 8 8 8 7 7 7 7 6 6 6 6 5 5 5 5 5 4 4 4 4 3 3 2 2 2
Wind_Speed
3 2 3 4 5 4 3 5 4 4 4 3 4 7 6 6 6 5 2 12 13 19 27 28 26 24 22 21 19 18 17 16 15 14 13 12 12 11 11 11 11 11 11 12 12 12 13 13 13
2 3 5 5 5 1 5 4 6 7 7 5 4 6 5 6 2 4 6 11 19 24 26 26 27 25 23 22 20 19 18 17 15 14 14 13 12 11 11 10 10 10 10 11 11 11 11 12 12
1 2 4 4 3 5 5 5 7 3 4 5 5 3 5 5 5 8 8 15 21 23 25 26 28 26 24 23 21 20 19 18 16 15 14 13 12 12 11 10 10 10 10 9 10 10 10 10 11
4 5 5 4 5 7 7 8 6 4 3 3 6 3 3 3 7 9 11 19 19 18 24 26 28 26 25 24 22 21 20 19 17 16 15 14 13 12 11 11 10 9 9 9 9 9 9 9 9
4 5 4 3 7 7 6 6 7 7 6 5 6 6 5 2 4 9 18 21 21 17 24 26 28 27 26 24 23 22 21 20 18 17 16 15 14 13 12 11 10 9 9 8 8 7 7 7 8
4 5 3 4 8 8 5 2 4 4 4 4 5 4 6 2 6 11 17 18 18 18 23 25 28 27 26 25 24 23 22 21 19 18 17 16 15 14 13 12 11 10 9 8 7 6 6 6 6
4 4 2 4 6 8 5 2 3 3 4 6 8 6 5 4 6 10 12 12 13 19 20 21 25 26 27 26 25 24 23 21 20 19 18 17 16 15 14 13 11 10 9 8 7 6 5 5 5
5 4 2 4 5 8 5 3 3 5 7 4 9 8 8 8 8 9 10 10 11 12 15 18 20 23 24 25 25 24 23 22 21 20 19 18 17 16 15 14 13 12 10 9 8 7 6 5 4
5 4 4 6 6 8 5 4 5 3 4 3 6 6 5 10 13 11 8 7 11 14 13 16 17 20 22 23 24 24 24 23 22 21 20 19 16 15 15 14 14 13 12 11 9 8 7 6 5
4 3 8 7 7 7 7 6 5 4 6 6 5 2 3 12 18 18 15 16 18 19 18 14 17 18 20 21 22 21 21 21 21 20 20 18 17 16 14 15 16 14 13 12 11 10 9 7 6
5 7 8 9 9 7 6 6 4 5 9 11 11 8 8 11 16 19 21 20 21 19 18 17 17 20 20 18 18 17 18 18 19 21 20 19 17 16 15 15 15 14 14 12 11 9 8 8 9
4 9 7 7 5 5 6 5 4 7 13 11 10 7 12 16 20 22 23 20 16 13 19 18 17 17 20 19 17 16 16 16 16 20 22 19 15 14 14 15 15 14 14 13 12 10 11 11 12
6 7 6 7 9 7 7 7 6 10 16 11 8 7 15 20 22 22 21 17 14 16 18 18 16 17 18 17 16 17 17 18 18 20 22 21 16 13 14 15 16 16 16 15 14 13 12 12 13
5 6 9 10 11 5 6 5 4 13 10 8 8 8 14 19 23 18 16 17 20 20 20 17 20 18 17 15 14 15 19 19 19 20 22 23 20 16 14 13 15 16 18 17 16 15 13 12 12
4 7 11 7 5 3 1 7 7 12 8 10 10 8 8 14 16 20 21 22 23 20 18 18 19 17 17 15 16 17 19 20 20 21 23 24 23 20 17 13 13 17 19 18 16 14 12 9 9
4 4 6 8 3 3 2 10 11 9 7 10 10 8 6 7 10 16 18 18 17 15 16 18 18 17 18 16 15 15 18 20 20 21 22 24 25 23 19 14 13 18 18 16 11 7 6 7 7
4 4 6 9 4 1 2 11 13 8 5 7 8 8 7 6 6 9 12 15 15 16 16 17 17 18 17 14 13 14 15 18 19 20 21 23 25 25 21 16 16 18 15 13 11 8 7 8 9
5 6 6 7 6 3 6 11 16 10 2 4 7 8 8 8 8 8 8 9 10 11 13 15 16 15 13 10 7 7 9 10 16 18 21 22 23 24 23 17 16 16 9 9 8 9 8 7 7
6 6 9 9 6 5 8 10 12 7 5 6 7 8 9 9 9 7 3 3 6 7 10 13 15 13 11 8 9 10 12 10 8 14 20 22 23 23 22 16 13 13 11 13 12 9 9 9 4
5 7 8 8 5 4 6 8 7 3 3 3 3 6 8 10 12 11 7 3 4 6 8 10 13 13 13 13 11 7 7 7 8 9 15 21 22 23 22 17 11 11 12 12 12 11 8 7 7
5 6 6 6 8 6 6 7 5 3 4 4 4 4 5 7 9 10 8 4 1 3 7 9 11 12 12 11 6 3 2 2 5 8 9 14 21 22 22 20 17 13 13 15 15 14 14 12 9
6 4 4 5 6 6 4 3 6 3 3 3 4 4 5 6 7 7 7 5 2 2 3 5 7 9 9 9 8 11 11 13 12 11 10 10 17 20 22 21 18 15 15 17 16 16 14 13 13
6 4 4 3 1 4 2 2 8 3 4 4 3 2 3 4 6 6 6 5 4 2 0 2 4 6 7 9 11 12 14 15 10 8 10 11 11 16 20 21 18 17 16 17 16 15 16 16 17
3 6 5 4 4 3 3 3 6 5 7 5 4 3 1 3 5 6 6 6 5 4 2 0 2 4 6 8 10 12 16 15 13 12 12 11 10 12 16 17 16 17 17 18 18 18 18 18 18
6 6 5 6 5 5 5 3 8 7 6 7 7 5 1 2 3 4 6 6 6 5 3 2 2 5 6 7 10 12 15 15 16 16 13 13 11 12 14 16 17 18 18 18 17 18 19 20 18
0 5 4 2 4 6 6 5 7 6 1 4 4 3 1 1 2 2 3 4 5 5 4 3 4 6 6 7 9 10 12 11 12 14 13 13 13 14 13 14 17 19 19 19 18 18 19 18 21
2 3 6 5 2 4 7 8 7 3 4 3 2 1 2 2 2 2 3 4 5 6 5 4 5 6 7 7 8 9 10 11 13 14 12 12 13 13 13 14 16 18 19 19 19 18 20 19 20
2 5 5 3 1 5 8 7 5 4 3 2 2 3 4 4 3 3 4 5 5 5 5 5 5 6 7 7 7 8 9 10 12 11 12 13 14 14 13 14 15 16 17 18 19 18 18 20 20
4 4 4 4 4 4 5 8 6 4 3 3 3 4 4 4 4 4 4 4 5 6 6 6 6 6 7 8 8 9 9 10 10 10 12 13 13 13 14 15 15 15 16 17 17 19 18 21 21
7 7 7 3 4 5 4 8 5 2 2 2 1 4 4 4 4 4 4 5 6 7 7 8 8 8 8 8 8 9 9 9 9 11 12 12 13 12 13 13 13 14 15 15 17 19 19 20 21
Wind_Direction
330 66 75 59 54 47 277 262 193 181 186 192 148 130 148 182 192 222 150 150 147 160 170 172 172 171 169 166 163 160 158 155 151 147 142 137 131 125 119 111 105 99 93 88 84 79 76 74 72
33 86 57 62 84 21 279 253 187 198 187 153 126 120 137 219 202 152 148 167 156 162 169 171 174 173 171 169 166 165 163 161 158 154 150 145 140 135 129 122 115 108 101 95 90 84 80 76 74
12 92 84 75 130 194 238 238 216 233 196 162 151 152 177 209 193 188 189 162 157 165 169 172 175 175 174 172 170 169 167 165 163 160 157 153 149 144 138 132 125 119 112 105 97 90 85 81 77
59 52 58 74 250 237 225 234 214 177 234 214 157 179 226 221 187 187 164 158 160 167 169 175 177 177 177 175 174 172 171 170 168 166 164 161 157 152 147 142 136 130 123 115 107 99 91 85 81
62 74 51 337 280 276 260 231 183 187 204 212 177 195 237 281 171 154 155 162 165 167 171 178 180 180 180 179 178 176 175 174 173 172 170 167 164 160 157 153 149 144 137 128 119 110 101 93 87
56 67 62 296 289 297 303 242 181 204 219 215 187 203 242 325 159 162 161 165 167 168 172 181 183 183 183 183 182 180 179 179 178 177 176 174 171 169 167 164 161 156 150 143 134 126 116 105 97
105 98 194 257 286 301 300 281 194 212 236 220 186 193 266 264 197 158 155 155 163 170 174 184 186 186 187 187 186 185 184 184 182 182 181 180 178 177 176 174 172 168 165 160 154 147 139 128 116
122 102 296 280 278 282 277 274 236 215 239 213 160 184 237 216 167 142 136 147 163 174 180 186 188 186 188 190 190 189 188 188 187 187 186 184 184 185 183 183 182 180 178 176 174 171 167 160 147
88 81 260 254 250 263 268 270 265 267 241 237 201 214 247 145 141 140 145 161 175 184 188 187 188 186 187 189 193 192 193 193 191 190 189 189 187 187 188 186 191 191 190 190 190 190 189 186 183
100 185 238 230 223 245 262 249 255 263 263 260 258 296 100 145 161 171 180 184 187 192 193 191 190 186 185 190 195 193 193 194 192 190 189 186 184 186 188 193 200 201 200 201 202 204 203 195 198
172 211 241 252 248 244 257 257 241 232 264 242 236 219 162 170 179 188 193 194 196 193 192 195 193 189 187 190 191 190 190 190 189 188 186 184 185 191 197 202 210 209 206 206 210 216 207 201 206
239 248 245 256 256 245 247 254 258 232 247 245 230 195 174 185 193 198 201 204 196 190 197 195 193 191 191 190 191 189 188 188 187 188 187 183 186 195 202 206 211 208 205 205 212 219 219 219 220
258 265 272 271 278 258 252 250 257 262 261 275 263 198 192 198 204 208 208 206 197 198 197 196 193 193 192 192 193 195 195 195 192 191 192 191 192 199 204 208 210 210 209 209 213 220 223 225 227
270 288 296 289 284 263 243 266 216 267 281 305 285 238 214 210 212 211 211 210 207 206 201 194 195 195 192 195 198 199 199 198 196 198 199 199 200 202 203 208 210 212 212 213 214 217 219 224 226
312 317 318 301 301 297 259 298 240 257 311 312 301 284 244 228 220 215 214 214 211 209 202 196 196 195 195 198 200 201 200 200 203 205 205 205 206 205 205 209 212 215 215 215 216 220 222 226 227
3 5 318 300 311 319 316 281 270 279 301 299 306 314 305 263 232 226 222 219 214 207 202 200 198 195 198 200 199 201 200 203 208 208 208 210 211 209 208 212 217 215 211 210 210 211 214 225 225
20 327 286 298 299 314 283 275 288 311 288 302 321 328 327 318 290 252 233 221 212 206 200 198 199 197 198 198 197 199 199 205 208 208 211 212 213 211 211 217 219 212 209 211 217 212 209 221 227
275 282 278 282 297 318 275 272 293 317 3 10 359 357 354 346 316 288 247 223 208 201 197 198 199 199 191 187 187 195 205 210 210 210 213 212 213 212 214 220 218 209 209 216 216 218 214 220 223
237 253 277 273 287 313 281 288 300 320 50 45 24 14 9 353 330 337 328 201 179 182 190 195 198 198 186 187 196 203 215 214 214 216 216 214 214 213 214 222 216 210 218 222 217 217 221 226 195
254 283 289 298 325 312 306 306 313 27 72 69 38 17 7 359 1 3 13 60 167 187 194 197 201 197 197 203 203 203 210 216 219 222 222 219 217 216 219 221 220 214 220 224 219 213 220 222 190
288 254 267 290 326 356 359 347 349 2 19 19 9 4 5 10 4 1 8 21 81 196 201 204 205 202 203 201 189 189 190 260 228 225 227 222 221 221 222 223 222 219 218 227 224 216 217 227 212
280 252 264 308 352 315 23 305 285 269 333 344 344 358 6 8 10 7 7 7 348 258 217 208 204 205 203 192 192 200 214 228 231 229 230 224 221 224 224 226 224 223 223 227 226 220 220 220 227
252 302 293 267 208 317 320 193 283 256 241 250 272 315 354 9 18 12 7 1 359 353 227 216 205 211 205 200 205 212 228 238 244 235 234 233 227 226 227 227 226 228 228 229 227 223 219 221 228
319 3 33 49 71 334 261 178 280 229 216 206 224 244 300 17 18 9 6 16 10 13 16 356 220 233 217 212 216 221 232 240 246 246 243 243 239 234 231 229 229 231 232 231 229 227 224 225 226
50 46 14 359 6 273 302 254 255 257 222 188 190 206 230 11 12 3 10 12 7 2 348 321 266 259 241 226 228 231 237 242 246 250 250 250 250 245 239 232 233 235 235 234 230 229 229 228 227
263 126 135 257 272 294 321 265 265 295 187 145 151 157 147 334 316 339 358 10 358 350 341 317 287 274 264 245 243 243 242 244 250 252 252 252 254 253 246 236 236 237 236 235 232 232 232 231 231
143 147 167 148 290 285 289 295 309 24 61 82 118 148 236 266 279 309 343 359 354 348 338 312 296 288 281 265 259 258 252 247 250 255 255 256 257 258 251 244 242 241 238 236 234 235 234 232 233
148 149 99 130 258 287 295 290 259 237 221 207 222 242 258 283 303 316 339 346 341 335 330 330 312 293 288 282 270 266 262 256 256 260 262 261 261 260 258 253 248 246 242 238 236 238 237 235 234
165 178 156 148 169 189 278 275 240 219 199 191 238 271 282 292 306 319 327 331 330 333 334 330 321 311 302 295 286 280 276 271 267 265 266 267 267 265 262 259 256 251 247 242 239 239 237 236 237
189 191 156 170 239 197 220 270 278 171 140 143 312 324 321 325 331 329 328 332 334 330 324 318 312 308 301 297 295 290 286 285 280 274 272 271 270 268 265 264 261 258 254 248 243 243 240 238 238
Height
1544 1546 1547 1549 1552 1561 1561 1552 1546 1545 1543 1541 1541 1541 1543 1545 1549 1551 1545 1544 1545 1546 1548 1550 1553 1555 1557 1559 1560 1560 1561 1562 1562 1562 1562 1562 1562 1562 1562 1562 1561 1561 1560 1560 1559 1558 1557 1556 1555
1545 1546 1548 1548 1558 1568 1562 1549 1545 1540 1539 1539 1539 1540 1541 1542 1542 1542 1541 1542 1543 1545 1546 1548 1551 1553 1555 1557 1558 1559 1560 1560 1561 1561 1562 1562 1562 1562 1561 1561 1561 1560 1560 1559 1559 1558 1557 1556 1555
1546 1547 1548 1550 1559 1564 1555 1546 1542 1539 1538 1538 1538 1539 1540 1539 1539 1539 1540 1540 1542 1543 1545 1547 1549 1551 1553 1555 1556 1557 1558 1559 1560 1560 1561 1561 1561 1561 1561 1561 1560 1560 1560 1559 1559 1558 1557 1557 1556
1547 1548 1549 1554 1556 1552 1547 1541 1539 1539 1539 1538 1537 1538 1537 1537 1537 1537 1538 1539 1540 1541 1543 1545 1547 1549 1551 1553 1554 1556 1557 1558 1558 1559 1559 1560 1560 1560 1560 1560 1560 1559 1559 1559 1558 1558 1557 1557 1556
1546 1547 1552 1558 1554 1546 1540 1537 1538 1538 1537 1536 1536 1535 1534 1534 1534 1534 1535 1537 1538 1539 1541 1543 1545 1547 1549 1551 1552 1554 1555 1556 1557 1557 1558 1558 1559 1559 1559 1559 1559 1559 1559 1558 1558 1558 1557 1557 1556
1547 1548 1560 1562 1554 1545 1539 1537 1538 1537 1536 1535 1535 1534 1531 1531 1531 1532 1533 1535 1536 1538 1539 1541 1543 1545 1547 1549 1550 1552 1553 1554 1555 1556 1556 1557 1557 1557 1558 1558 1558 1558 1558 1558 1558 1557 1557 1556 1556
1547 1551 1557 1556 1554 1548 1540 1538 1537 1536 1535 1533 1532 1532 1529 1528 1529 1530 1531 1533 1534 1536 1537 1539 1541 1543 1545 1546 1548 1549 1551 1552 1553 1554 1555 1555 1556 1556 1556 1556 1557 1557 1557 1557 1557 1557 1556 1556 1555
1546 1550 1553 1555 1553 1547 1539 1537 1535 1534 1532 1531 1530 1529 1526 1526 1526 1527 1529 1530 1532 1533 1535 1536 1538 1540 1541 1543 1545 1547 1548 1550 1551 1552 1553 1553 1554 1555 1555 1555 1555 1556 1556 1556 1556 1556 1555 1555 1555
1546 1553 1557 1552 1549 1543 1537 1536 1534 1532 1530 1528 1527 1525 1524 1523 1524 1525 1526 1527 1528 1529 1531 1533 1535 1536 1538 1540 1542 1544 1546 1547 1548 1549 1551 1551 1552 1553 1553 1554 1554 1554 1554 1554 1554 1554 1554 1554 1553
1545 1554 1550 1542 1539 1537 1534 1533 1531 1529 1527 1525 1523 1521 1520 1520 1520 1520 1521 1521 1523 1524 1526 1528 1530 1533 1535 1537 1539 1541 1542 1544 1545 1547 1548 1549 1550 1551 1551 1552 1552 1552 1552 1552 1552 1552 1552 1552 1552
1543 1545 1540 1536 1534 1533 1531 1529 1527 1526 1524 1520 1518 1517 1517 1516 1516 1516 1516 1517 1518 1520 1522 1524 1526 1529 1531 1533 1535 1537 1538 1540 1542 1543 1545 1546 1547 1548 1549 1549 1550 1550 1550 1550 1550 1550 1550 1550 1550
1541 1537 1535 1532 1531 1530 1528 1526 1524 1522 1518 1516 1515 1514 1513 1512 1511 1511 1512 1513 1515 1516 1517 1520 1522 1524 1527 1529 1531 1533 1534 1536 1538 1540 1541 1543 1544 1545 1546 1546 1547 1547 1547 1548 1548 1548 1547 1547 1547
1537 1534 1531 1529 1528 1526 1524 1522 1522 1517 1513 1512 1511 1509 1507 1506 1505 1506 1507 1509 1511 1511 1513 1515 1518 1520 1522 1525 1527 1528 1530 1532 1534 1536 1538 1539 1540 1542 1543 1543 1544 1544 1544 1545 1545 1545 1544 1544 1544
1535 1533 1530 1526 1523 1520 1520 1518 1519 1511 1510 1509 1507 1504 1502 1501 1500 1501 1502 1503 1504 1506 1508 1510 1512 1515 1518 1520 1521 1523 1526 1528 1530 1532 1533 1535 1536 1538 1539 1540 1540 1541 1541 1541 1541 1541 1541 1540 1540
1534 1533 1529 1524 1521 1519 1519 1519 1515 1509 1508 1506 1503 1501 1498 1496 1496 1495 1496 1497 1499 1501 1503 1505 1507 1510 1513 1515 1517 1519 1521 1523 1525 1527 1529 1531 1532 1533 1534 1535 1535 1536 1537 1537 1537 1537 1536 1536 1535
1534 1537 1538 1526 1521 1520 1523 1523 1510 1508 1507 1503 1501 1498 1495 1493 1491 1491 1491 1492 1494 1497 1499 1501 1504 1505 1508 1510 1512 1514 1516 1518 1520 1522 1524 1525 1527 1528 1529 1529 1530 1532 1532 1532 1532 1532 1531 1530 1530
1541 1545 1541 1531 1522 1521 1522 1520 1507 1506 1504 1501 1499 1496 1493 1491 1489 1488 1488 1488 1490 1492 1495 1497 1500 1501 1503 1506 1508 1510 1512 1513 1514 1516 1517 1519 1521 1522 1523 1523 1524 1526 1526 1526 1526 1525 1525 1524 1524
1544 1543 1540 1536 1524 1522 1522 1519 1507 1504 1502 1501 1499 1496 1493 1490 1488 1486 1485 1485 1486 1488 1491 1494 1496 1498 1501 1503 1505 1507 1507 1508 1509 1509 1511 1512 1514 1515 1516 1516 1517 1519 1519 1518 1518 1518 1518 1518 1518
1537 1538 1539 1532 1523 1523 1520 1517 1508 1503 1502 1501 1500 1497 1495 1492 1490 1487 1485 1484 1485 1486 1488 1490 1493 1495 1497 1499 1500 1501 1501 1502 1503 1503 1505 1506 1507 1508 1509 1509 1510 1511 1510 1511 1511 1512 1511 1510 1512
1534 1536 1536 1528 1522 1522 1520 1517 1508 1504 1504 1503 1502 1499 1496 1493 1490 1487 1486 1485 1485 1485 1487 1488 1490 1492 1494 1495 1496 1497 1498 1498 1498 1499 1499 1499 1500 1500 1501 1501 1501 1502 1502 1502 1502 1503 1502 1502 1504
1532 1533 1532 1531 1526 1522 1521 1518 1511 1508 1506 1505 1503 1501 1498 1495 1492 1490 1488 1486 1486 1486 1486 1487 1489 1490 1491 1492 1494 1494 1494 1493 1492 1492 1492 1492 1493 1493 1493 1492 1492 1492 1492 1492 1492 1493 1493 1493 1494
1534 1526 1527 1528 1532 1534 1530 1534 1518 1510 1508 1506 1504 1501 1499 1497 1495 1492 1490 1488 1487 1487 1487 1487 1487 1488 1489 1490 1489 1489 1488 1486 1485 1486 1485 1485 1485 1485 1484 1483 1483 1482 1482 1481 1481 1482 1482 1483 1482
1527 1524 1526 1527 1529 1534 1531 1534 1524 1511 1510 1507 1504 1502 1500 1498 1496 1494 1492 1490 1489 1487 1487 1486 1486 1486 1487 1487 1486 1485 1484 1482 1481 1480 1478 1477 1477 1476 1475 1474 1473 1472 1471 1470 1470 1470 1470 1469 1470
1524 1526 1527 1532 1536 1537 1527 1533 1525 1515 1506 1504 1503 1502 1501 1499 1498 1496 1494 1492 1490 1489 1487 1486 1486 1485 1485 1484 1483 1481 1479 1478 1476 1473 1471 1470 1468 1467 1465 1464 1463 1461 1460 1459 1458 1458 1458 1457 1457
1527 1537 1544 1541 1545 1537 1526 1526 1521 1504 1500 1500 1501 1501 1501 1500 1499 1497 1495 1493 1491 1489 1488 1486 1485 1484 1483 1481 1480 1478 1475 1473 1470 1468 1465 1463 1460 1458 1455 1454 1452 1450 1449 1448 1447 1446 1445 1445 1444
1529 1535 1547 1549 1551 1544 1530 1527 1513 1502 1499 1499 1501 1502 1502 1501 1499 1497 1495 1493 1491 1489 1487 1486 1484 1482 1481 1479 1477 1474 1471 1468 1465 1462 1459 1455 1452 1449 1447 1445 1442 1440 1438 1437 1435 1433 1432 1432 1430
1528 1534 1535 1546 1546 1548 1538 1525 1510 1502 1502 1502 1502 1502 1502 1500 1499 1497 1495 1494 1492 1489 1487 1485 1483 1480 1478 1475 1472 1469 1466 1463 1459 1456 1452 1448 1445 1441 1438 1435 1432 1429 1427 1426 1424 1421 1419 1419 1417
1527 1532 1541 1544 1548 1551 1542 1531 1518 1506 1505 1504 1503 1502 1501 1500 1498 1497 1495 1493 1491 1489 1486 1483 1481 1478 1474 1471 1468 1464 1461 1457 1453 1449 1445 1441 1437 1433 1429 1426 1422 1419 1417 1414 1412 1409 1408 1406 1404
1530 1531 1534 1543 1547 1551 1549 1533 1507 1503 1502 1503 1502 1501 1500 1499 1498 1496 1494 1492 1490 1487 1484 1481 1477 1474 1470 1466 1462 1458 1454 1450 1446 1441 1437 1433 1428 1424 1420 1416 1412 1408 1405 1403 1400 1397 1395 1394 1392
1525 1527 1533 1540 1541 1545 1549 1530 1502 1501 1501 1501 1501 1501 1499 1498 1497 1495 1493 1490 1487 1484 1480 1477 1473 1469 1464 1460 1456 1451 1447 1443 1438 1433 1428 1424 1419 1414 1410 1406 1402 1398 1394 1392 1388 1385 1383 1381 1379